Torna al catalogo

SL-8 DEB

AttivoLEO
NORAD 39698·DEBRIS·🇷🇺 Russia

Lanciato Feb 12, 1991 da Plesetsk Cosmodrome

Loading…

Prossimi Passaggi (prossime 24 ore)

TLE

In scadenzaSource: Space-Track

Epoca: Sep 8, 2026, 06:06 UTC

1 39698U 91009DM  26251.25437565  .00000093  00000-0  95304-3 0  9993
2 39698  74.0439  88.8657 0181769 144.2065 335.0351 12.21979601552527

Traccia SL-8 DEB in tempo reale con AllMySat

Download on the App Store